HTV-8 (KOUNOTORI 8)

Last updated on Mon Nov 04 2019 00:02:09 GMT+0000 (Coordinated Universal Time)

1 44546U 19062A 19307.01850943 .23974190 12480-4 23615-2 0 9994 2 44546 51.6419 32.8503 0190927 296.2042 253.4858 16.01011909 6105

Satellite not in orbit